Location: Chenereilles
(45.4866°N, 4.0790°E)
Time: 22:11:18
(UTC+00:00)

Cosmos 2219 - Pass Details

Date: 12 November 2019
Orbit: 835 x 858 km, 71.1° (Epoch: 05 December)

Event Time Altitude Azimuth Distance (km) Brightness Sun altitude
Rises 17:14:46 0° 336° (NNW) 3,397 6.5 -10.3°
Reaches altitude 10° 17:17:15 10° 340° (NNW) 2,457 5.7 -10.8°
Maximum altitude 17:22:50 61° 60° (ENE) 943 3.2 -11.7°
Drops below altitude 10° 17:28:22 10° 141° (SE) 2,442 5.4 -12.6°
Sets 17:30:50 0° 145° (SE) 3,374 6.1 -13.1°
